Change the Weather History Date:

Wednesday, October 3, 2012

  Actual Average Record
Temperature  
Mean Temperature 64 °F 65 °F  
Max Temperature 76 °F 76 °F 92 °F (1903)
Min Temperature 51 °F 53 °F 35 °F (1984)
Degree Days  
Heating Degree Days 1    
Month to date heating degree days 6  
Since 1 July heating degree days 28  
Cooling Degree Days 0    
Month to date cooling degree days 0  
Year to date cooling degree days 1954  
Growing Degree Days 13 (Base 50)    
Moisture  
Dew Point 53 °F    
Average Humidity 72    
Maximum Humidity 100    
Minimum Humidity 43    
Precipitation  
Precipitation 0.00 in 0.10 in 1.33 in (1893)
Month to date precipitation 1.28 0.30  
Year to date precipitation 37.18 35.96  
Snow  
Snow 0.00 in 0.00 in 0.00 in (2002)
Month to date snowfall 0.0 0.0  
Since 1 July snowfall 0.0 0.0  
Since 1 September snowfall 0.0 0.0  
Snow Depth 0.00 in    
Sea Level Pressure  
Sea Level Pressure 30.09 in    
Wind  
Wind Speed 4 mph (South)    
Max Wind Speed 14 mph    
Max Gust Speed 18 mph    
Visibility 9 miles    
Events Fog    
T = Trace of Precipitation, MM = Missing Value Source: NWS Daily Summary

Daily Weather History Graph

Daily Weather History Graph

Search for Another Location

Airport or City:

Trip Planner

Search our weather history database for the weather conditions in past years. The results will help you decide how hot, cold, wet, or windy it might be!

Date:

Astronomy

Oct. 03, 2012 Rise Set
Actual Time 6:43 AM CDT 6:26 PM CDT
Civil Twilight 6:18 AM CDT 6:52 PM CDT
Nautical Twilight 5:48 AM CDT 7:22 PM CDT
Astronomical Twilight 5:18 AM CDT 7:51 PM CDT
Moon 8:26 PM CDT (10/3) 9:59 AM CDT (10/3)
Length of Visible Light 12h 34m
Length of Day
11h 42m
Waning Gibbous, 88% of the Moon is Illuminated
Oct 3
Waning Gibbous
Oct 8
Last Quarter
Oct 15
New
Oct 21
First Quarter
Oct 29
Full

Hourly Weather History & Observations

Time (CDT) Temp. Dew Point Humidity Pressure Visibility Wind Dir Wind Speed Gust Speed Precip Events Conditions
12:53 AM 55.0 °F 53.1 °F 93% 30.00 in 7.0 mi Calm Calm - N/A   Clear
1:53 AM 54.0 °F 53.1 °F 97% 30.00 in 7.0 mi South 3.5 mph - N/A   Clear
2:53 AM 53.1 °F 52.0 °F 96% 30.01 in 7.0 mi Calm Calm - N/A   Clear
3:53 AM 51.1 °F 50.0 °F 96% 30.02 in 7.0 mi South 4.6 mph - N/A   Clear
4:53 AM 52.0 °F 51.1 °F 97% 30.04 in 9.0 mi SSE 4.6 mph - N/A   Clear
5:53 AM 54.0 °F 52.0 °F 93% 30.06 in 7.0 mi Calm Calm - N/A Fog Patches of Fog
6:34 AM 51.8 °F 50.0 °F 94% 30.07 in 7.0 mi Calm Calm - N/A Fog Patches of Fog
6:53 AM 53.1 °F 52.0 °F 96% 30.07 in 7.0 mi Calm Calm - N/A Fog Patches of Fog
7:53 AM 55.0 °F 54.0 °F 96% 30.09 in 7.0 mi Calm Calm - N/A Fog Patches of Fog
8:53 AM 59.0 °F 57.0 °F 93% 30.11 in 8.0 mi Calm Calm - N/A   Partly Cloudy
9:53 AM 66.0 °F 55.9 °F 70% 30.12 in 10.0 mi SSE 4.6 mph - N/A   Scattered Clouds
10:53 AM 70.0 °F 54.0 °F 57% 30.12 in 10.0 mi SSE 5.8 mph - N/A   Scattered Clouds
11:53 AM 72.0 °F 50.0 °F 46% 30.11 in 10.0 mi SSW 4.6 mph - N/A   Scattered Clouds
12:53 PM 73.0 °F 51.1 °F 46% 30.09 in 10.0 mi SSW 9.2 mph - N/A   Scattered Clouds
1:53 PM 73.9 °F 53.1 °F 48% 30.09 in 10.0 mi SSW 6.9 mph - N/A   Scattered Clouds
2:53 PM 73.0 °F 51.1 °F 46% 30.08 in 10.0 mi SSW 8.1 mph - N/A   Scattered Clouds
3:53 PM 75.0 °F 51.1 °F 43% 30.08 in 10.0 mi SW 5.8 mph - N/A   Scattered Clouds
4:53 PM 73.0 °F 51.1 °F 46% 30.09 in 10.0 mi SW 5.8 mph - N/A   Scattered Clouds
5:53 PM 72.0 °F 53.1 °F 51% 30.09 in 10.0 mi SSW 3.5 mph - N/A   Scattered Clouds
6:53 PM 69.1 °F 54.0 °F 58% 30.11 in 10.0 mi Calm Calm - N/A   Scattered Clouds
7:53 PM 66.0 °F 55.0 °F 68% 30.12 in 10.0 mi South 3.5 mph - N/A   Partly Cloudy
8:53 PM 63.0 °F 55.9 °F 78% 30.14 in 10.0 mi South 3.5 mph - N/A   Partly Cloudy
9:53 PM 60.1 °F 55.9 °F 86% 30.15 in 10.0 mi South 3.5 mph - N/A   Partly Cloudy
10:53 PM 60.1 °F 55.9 °F 86% 30.17 in 10.0 mi South 3.5 mph - N/A   Clear
11:53 PM 57.9 °F 55.0 °F 90% 30.18 in 10.0 mi South 5.8 mph - N/A   Clear